EW5383 Weather Reports


time (UTC)temp
C
wind
direction
speed
KPH
gust
KPH
rain 1hr
cm
rain 24hr
cm
rain mn
cm
humidity
%
barometer
mb
20260503071546 -17 0.0 0.0 0.00 0.99 0.00 1013.6
20260503054518 -17 0.0 0.0 0.00 0.99 0.00 1014.0
20260503053017 -17 0.0 0.0 0.00 0.99 0.00 1014.1
20260503051521 -17 0.0 0.0 0.00 0.99 0.00 1014.0
20260503050005 -17 0.0 0.0 0.00 0.99 0.00 1014.2
20260503044611 -17 0.0 0.0 0.00 0.99 0.00 1014.4
20260503043059 -17 0.0 0.0 0.00 0.99 0.00 1014.3
20260503041552 -17 0.0 0.0 0.00 0.99 0.00 1014.3
20260503040052 -17 0.0 0.0 0.00 0.99 0.00 1014.2
20260503034543 -17 0.0 0.0 0.00 0.99 0.99 1013.9
20260503033040 -17 0.0 0.0 0.00 0.99 0.99 1013.5
20260503031535 -17 0.0 0.0 0.00 0.99 0.99 1013.4
20260503030048 -17 0.0 0.0 0.00 0.99 0.99 1012.8
20260503024531 -17 0.0 0.0 0.00 0.99 0.99 1012.9
20260503023020 -17 0.0 0.0 0.00 0.99 0.99 1013.3
20260503021516 -17 0.0 0.0 0.00 0.99 0.99 1013.0
20260503020012 -17 0.0 0.0 0.00 0.99 0.99 1013.3
20260503014508 21 46 0.0 0.0 0.00 0.99 0.99 1 1013.2
20260503013003 21 51 0.0 0.0 0.00 0.99 0.99 1 1013.1
20260503011603 21 51 0.0 0.0 0.00 0.99 0.99 1 1012.1
20260503010106 21 219 0.0 0.0 0.00 0.99 0.99 1 1011.7
20260503004550 21 219 0.0 0.0 0.03 0.99 0.99 1 1012.0
20260503003056 21 219 0.0 0.0 0.03 0.99 0.99 1 1012.0
20260503001541 21 219 0.0 0.0 0.03 0.99 0.99 1 1011.2
20260503000036 21 226 0.0 0.0 0.03 0.97 0.97 1 1011.9
20260502234532 21 234 0.0 0.0 0.05 0.97 0.97 1 1010.6
20260502233028 22 148 0.0 0.0 0.05 0.97 0.97 1 1011.0
20260502231523 22 148 0.0 0.0 0.10 0.97 0.97 1 1011.4
20260502230019 22 148 0.0 0.0 0.10 0.91 0.91 1 1011.3
20260502224515 22 148 0.0 0.0 0.15 0.91 0.91 1 1011.5
20260502223013 22 148 0.0 0.0 0.18 0.91 0.91 1 1011.3
20260502221506 22 148 0.0 0.0 0.15 0.86 0.86 1 1011.2
20260502220002 22 148 0.0 0.0 0.28 0.81 0.81 1 1011.3
20260502214602 22 148 0.0 0.0 0.33 0.76 0.76 1 1011.5
20260502213053 22 152 0.0 0.0 0.30 0.71 0.71 1 1010.9
20260502211551 22 18 0.0 0.0 0.71 0.71 0.71 1 1010.8
20260502210044 22 51 0.0 0.0 0.53 0.53 0.53 1 1011.4
20260502204540 22 13 0.0 0.0 0.43 0.43 0.43 1 1011.0
20260502203045 23 41 0.0 1.6 0.43 0.43 0.43 1 1010.9
20260502201533 27 76 0.0 3.2 0.00 0.00 0.00 1 1011.0
20260502200026 28 268 0.0 0.0 0.00 0.00 0.00 1 1010.4
20260502194522 28 49 0.0 1.6 0.00 0.00 0.00 1 1010.4
20260502193017 28 79 0.0 1.6 0.00 0.00 0.00 6 1010.9
20260502191513 28 240 0.0 0.0 0.00 0.00 0.00 19 1011.2
20260502190010 28 265 0.0 1.6 0.00 0.00 0.00 34 1011.2
20260502184504 29 9 0.0 0.0 0.00 0.00 0.00 45 1011.2
20260502183059 29 152 0.0 1.6 0.00 0.00 0.00 54 1011.4
20260502181609 30 92 0.0 1.6 0.00 0.00 0.00 58 1011.3
20260502163023 31 138 0.0 1.6 0.00 0.00 0.00 55 1012.0
20260502161519 31 19 0.0 3.2 0.00 0.00 0.00 59 1012.1
20260502151501 31 178 0.0 3.2 0.00 0.00 0.00 55 1011.6
20260502123012 23 167 0.0 0.0 0.00 0.00 0.00 1 1010.7
20260502121510 22 174 0.0 0.0 0.00 0.00 0.00 1 1010.7
20260502114601 21 155 0.0 0.0 0.00 0.00 0.00 1 1010.5
20260502113056 20 155 0.0 0.0 0.00 0.00 0.00 1010.4
20260502111551 -17 0.0 0.0 0.00 0.00 0.00 1010.3
20260502110051 -17 0.0 0.0 0.00 0.00 0.00 1010.3
20260502104542 -17 0.0 0.0 0.00 0.00 0.00 1009.9
20260502103038 -17 0.0 0.0 0.00 0.00 0.00 1009.9
20260502101538 -17 0.0 0.0 0.00 0.00 0.00 1010.1
20260502091516 -17 0.0 0.0 0.00 0.00 0.00 1010.5
20260502080105 -17 0.0 0.0 0.00 0.00 0.00 1010.7